Location: *
(58.7167°N, 26.1833°E)
Time: 17:56:35
(UTC+00:00)

Cosmos 1241 Rocket - Pass Details

Date: 25 August 2019
Orbit: 939 x 1009 km, 65.8° (Epoch: 17 October)

Event Time Altitude Azimuth Distance (km) Brightness Sun altitude
Rises 19:09:11 0° 219° (SW) 3,724 7.5 -10.9°
Reaches altitude 10° 19:11:47 10° 218° (SW) 2,771 6.8 -11.2°
Maximum altitude 19:18:16 74° 135° (SE) 1,035 4.5 -11.8°
Drops below altitude 10° 19:24:40 10° 52° (NE) 2,738 6.8 -12.4°
Sets 19:27:13 0° 51° (NE) 3,678 7.5 -12.6°
